| time (UTC) | temp C | wind direction | speed KPH | gust KPH | rain 1hr cm | rain 24hr cm | rain mn cm | humidity % | barometer mb |
| 20260504224438 | 28 | 50 | 9.7 | 16.1 | 0.00 | 0.53 | 0.53 | 87 | 1010.8 |
| 20260504223936 | 27 | 78 | 9.7 | 19.3 | 0.00 | 0.53 | 0.53 | 88 | 1010.8 |
| 20260504223431 | 27 | 67 | 9.7 | 20.9 | 0.00 | 0.53 | 0.53 | 88 | 1010.8 |
| 20260504222927 | 27 | 57 | 11.3 | 17.7 | 0.00 | 0.53 | 0.53 | 87 | 1010.5 |
| 20260504222425 | 27 | 60 | 12.9 | 20.9 | 0.00 | 0.53 | 0.53 | 87 | 1010.5 |
| 20260504221923 | 27 | 59 | 4.8 | 9.7 | 0.00 | 0.53 | 0.53 | 88 | 1010.5 |
| 20260504221419 | 27 | 72 | 4.8 | 8.0 | 0.00 | 0.53 | 0.53 | 89 | 1010.8 |
| 20260504220916 | 27 | 62 | 6.4 | 11.3 | 0.00 | 0.53 | 0.53 | 89 | 1010.5 |
| 20260504220413 | 27 | 63 | 14.5 | 22.5 | 0.00 | 0.53 | 0.53 | 89 | 1010.5 |
| 20260504215910 | 27 | 56 | 8.0 | 12.9 | 0.00 | 0.53 | 0.53 | 89 | 1010.5 |
| 20260504215407 | 27 | 60 | 8.0 | 17.7 | 0.00 | 0.53 | 0.53 | 89 | 1010.2 |
| 20260504214903 | 27 | 62 | 9.7 | 14.5 | 0.00 | 0.53 | 0.53 | 89 | 1010.5 |
| 20260504214400 | 27 | 67 | 11.3 | 20.9 | 0.00 | 0.53 | 0.53 | 89 | 1010.5 |
| 20260504213856 | 27 | 71 | 8.0 | 12.9 | 0.00 | 0.53 | 0.53 | 89 | 1010.5 |
| 20260504213352 | 27 | 60 | 9.7 | 25.7 | 0.00 | 0.53 | 0.53 | 90 | 1010.5 |
| 20260504212850 | 27 | 63 | 8.0 | 12.9 | 0.00 | 0.53 | 0.53 | 90 | 1010.5 |
| 20260504212346 | 27 | 79 | 8.0 | 16.1 | 0.00 | 0.53 | 0.53 | 91 | 1010.5 |
| 20260504211844 | 27 | 71 | 11.3 | 25.7 | 0.00 | 0.53 | 0.53 | 92 | 1010.5 |
| 20260504211339 | 27 | 64 | 11.3 | 25.7 | 0.00 | 0.53 | 0.53 | 92 | 1010.5 |
| 20260504210837 | 27 | 61 | 11.3 | 17.7 | 0.00 | 0.53 | 0.53 | 91 | 1010.5 |
| 20260504210334 | 27 | 48 | 4.8 | 8.0 | 0.00 | 0.53 | 0.53 | 91 | 1010.8 |
| 20260504205831 | 27 | 52 | 6.4 | 11.3 | 0.00 | 0.53 | 0.53 | 92 | 1010.5 |
| 20260504205329 | 26 | 58 | 6.4 | 11.3 | 0.00 | 0.53 | 0.53 | 93 | 1010.5 |
| 20260504204827 | 26 | 76 | 8.0 | 19.3 | 0.00 | 0.53 | 0.53 | 94 | 1010.5 |
| 20260504204325 | 26 | 66 | 8.0 | 12.9 | 0.00 | 0.53 | 0.53 | 95 | 1010.5 |
| 20260504203824 | 26 | 58 | 8.0 | 11.3 | 0.00 | 0.53 | 0.53 | 95 | 1010.5 |
| 20260504203321 | 26 | 64 | 8.0 | 17.7 | 0.00 | 0.53 | 0.53 | 95 | 1010.5 |
| 20260504202816 | 26 | 67 | 8.0 | 14.5 | 0.00 | 0.53 | 0.53 | 95 | 1010.5 |
| 20260504202314 | 26 | 68 | 6.4 | 11.3 | 0.00 | 0.53 | 0.53 | 94 | 1010.5 |
| 20260504201810 | 26 | 67 | 8.0 | 12.9 | 0.00 | 0.53 | 0.53 | 94 | 1010.5 |
| 20260504201308 | 26 | 54 | 6.4 | 12.9 | 0.00 | 0.53 | 0.53 | 94 | 1010.5 |
| 20260504200805 | 26 | 87 | 6.4 | 12.9 | 0.00 | 0.53 | 0.53 | 94 | 1010.5 |
| 20260504200302 | 26 | 62 | 11.3 | 17.7 | 0.00 | 0.53 | 0.53 | 94 | 1010.5 |
| 20260504195758 | 26 | 71 | 8.0 | 14.5 | 0.00 | 0.53 | 0.53 | 94 | 1010.5 |
| 20260504195254 | 26 | 85 | 4.8 | 9.7 | 0.00 | 0.53 | 0.53 | 94 | 1010.5 |
| 20260504194751 | 26 | 76 | 4.8 | 9.7 | 0.00 | 0.53 | 0.53 | 94 | 1010.5 |
| 20260504194247 | 26 | 76 | 4.8 | 14.5 | 0.00 | 0.53 | 0.53 | 95 | 1010.5 |
| 20260504193743 | 26 | 68 | 6.4 | 9.7 | 0.00 | 0.53 | 0.53 | 94 | 1010.5 |
| 20260504193241 | 26 | 69 | 8.0 | 14.5 | 0.00 | 0.53 | 0.53 | 94 | 1010.5 |
| 20260504192739 | 26 | 63 | 8.0 | 17.7 | 0.00 | 0.53 | 0.53 | 94 | 1010.5 |
| 20260504192237 | 26 | 59 | 6.4 | 12.9 | 0.00 | 0.53 | 0.53 | 94 | 1010.5 |
| 20260504191735 | 26 | 62 | 8.0 | 14.5 | 0.00 | 0.53 | 0.53 | 94 | 1010.5 |
| 20260504191232 | 26 | 67 | 9.7 | 17.7 | 0.00 | 0.53 | 0.53 | 94 | 1010.8 |
| 20260504190727 | 26 | 61 | 8.0 | 11.3 | 0.00 | 0.53 | 0.53 | 94 | 1010.5 |
| 20260504190224 | 26 | 53 | 4.8 | 11.3 | 0.00 | 0.53 | 0.53 | 93 | 1010.5 |
| 20260504185720 | 26 | 63 | 8.0 | 20.9 | 0.00 | 0.53 | 0.53 | 93 | 1010.5 |
| 20260504185217 | 26 | 72 | 6.4 | 11.3 | 0.00 | 0.53 | 0.53 | 93 | 1010.5 |
| 20260504184713 | 26 | 66 | 6.4 | 14.5 | 0.00 | 0.53 | 0.53 | 93 | 1010.5 |
| 20260504184209 | 25 | 55 | 3.2 | 8.0 | 0.00 | 0.53 | 0.53 | 93 | 1010.5 |
| 20260504183705 | 25 | 64 | 4.8 | 8.0 | 0.00 | 0.53 | 0.53 | 93 | 1010.5 |
| 20260504183202 | 25 | 51 | 3.2 | 6.4 | 0.00 | 0.53 | 0.53 | 93 | 1010.8 |
| 20260504182700 | 25 | 68 | 6.4 | 12.9 | 0.00 | 0.53 | 0.53 | 92 | 1010.5 |
| 20260504182157 | 25 | 57 | 8.0 | 11.3 | 0.00 | 0.53 | 0.53 | 92 | 1010.8 |
| 20260504181655 | 25 | 65 | 6.4 | 11.3 | 0.00 | 0.53 | 0.53 | 92 | 1010.8 |
| 20260504181152 | 25 | 64 | 4.8 | 11.3 | 0.00 | 0.53 | 0.53 | 91 | 1010.5 |
| 20260504180651 | 25 | 80 | 6.4 | 12.9 | 0.00 | 0.53 | 0.53 | 92 | 1010.5 |
| 20260504180149 | 25 | 73 | 4.8 | 8.0 | 0.00 | 0.53 | 0.53 | 92 | 1010.5 |
| 20260504175646 | 25 | 61 | 6.4 | 9.7 | 0.00 | 0.53 | 0.53 | 91 | 1010.5 |
| 20260504175143 | 25 | 65 | 6.4 | 11.3 | 0.00 | 0.53 | 0.53 | 91 | 1010.5 |
| 20260504174641 | 25 | 68 | 4.8 | 11.3 | 0.00 | 0.53 | 0.53 | 92 | 1010.2 |
| 20260504174137 | 25 | 67 | 4.8 | 9.7 | 0.00 | 0.53 | 0.53 | 92 | 1010.2 |
| 20260504173635 | 25 | 22 | 4.8 | 9.7 | 0.00 | 0.53 | 0.53 | 92 | 1010.5 |
| 20260504173132 | 25 | 66 | 3.2 | 4.8 | 0.00 | 0.53 | 0.53 | 92 | 1010.2 |
| 20260504172629 | 24 | 77 | 4.8 | 9.7 | 0.00 | 0.53 | 0.53 | 93 | 1010.2 |
| 20260504172125 | 24 | 64 | 3.2 | 4.8 | 0.00 | 0.53 | 0.53 | 93 | 1010.2 |
| 20260504171621 | 24 | 64 | 3.2 | 4.8 | 0.00 | 0.53 | 0.53 | 93 | 1010.2 |
| 20260504171119 | 24 | 64 | 1.6 | 4.8 | 0.00 | 0.53 | 0.53 | 94 | 1010.5 |
| 20260504170615 | 24 | 64 | 3.2 | 4.8 | 0.00 | 0.53 | 0.53 | 95 | 1010.5 |
| 20260504170113 | 23 | 78 | 3.2 | 4.8 | 0.00 | 0.53 | 0.53 | 96 | 1010.5 |
| 20260504150958 | 23 | 35 | 0.0 | 0.0 | 0.00 | 0.51 | 0.51 | 99 | 1012.9 |
| 20260504150455 | 23 | 35 | 0.0 | 0.0 | 0.00 | 0.51 | 0.51 | 99 | 1012.9 |
| 20260504140921 | 23 | 35 | 0.0 | 0.0 | 0.00 | 0.43 | 0.43 | 99 | 1014.2 |
| 20260504140418 | 23 | 35 | 0.0 | 0.0 | 0.00 | 0.41 | 0.41 | 98 | 1014.2 |
| 20260504130343 | 24 | 11 | 3.2 | 4.8 | 0.00 | 0.00 | 0.00 | 99 | 1014.2 |
| 20260504120306 | 25 | 47 | 1.6 | 4.8 | 0.00 | 11.13 | 11.13 | 97 | 1014.9 |
| 20260504110230 | 24 | 65 | 4.8 | 8.0 | 0.00 | 11.00 | 11.00 | 96 | 1013.6 |
| 20260504100154 | 24 | 108 | 3.2 | 8.0 | 0.00 | 10.52 | 10.52 | 97 | 1014.2 |
| 20260504090116 | 24 | 7 | 3.2 | 6.4 | 1.19 | 9.80 | 9.80 | 96 | 1011.9 |
| 20260504081546 | 24 | 59 | 6.4 | 16.1 | 0.00 | 9.37 | 9.37 | 97 | 1011.9 |
| 20260504081042 | 24 | 72 | 9.7 | 17.7 | 0.00 | 9.30 | 9.30 | 97 | 1011.9 |
| 20260504080539 | 24 | 66 | 8.0 | 14.5 | 0.00 | 9.25 | 9.25 | 98 | 1011.9 |
| 20260504050352 | 25 | 102 | 1.6 | 6.4 | 0.00 | 6.15 | 6.15 | 98 | 1010.5 |
| 20260504045849 | 25 | 91 | 3.2 | 8.0 | 0.00 | 6.12 | 6.12 | 98 | 1010.5 |
| 20260504045350 | 25 | 70 | 4.8 | 6.4 | 0.00 | 6.10 | 6.10 | 98 | 1010.5 |
| 20260504044847 | 25 | 64 | 4.8 | 11.3 | 0.00 | 6.10 | 6.10 | 99 | 1010.5 |
| 20260504044344 | 25 | 63 | 4.8 | 9.7 | 1.19 | 6.05 | 6.05 | 99 | 1010.5 |
| 20260504043841 | 25 | 58 | 6.4 | 9.7 | 2.39 | 5.94 | 5.94 | 99 | 1010.5 |
| 20260504043338 | 25 | 73 | 1.6 | 6.4 | 2.39 | 5.74 | 5.74 | 99 | 1010.5 |
| 20260504042835 | 25 | 325 | 1.6 | 6.4 | 1.19 | 5.51 | 5.51 | 99 | 1010.8 |
| 20260504042332 | 25 | 226 | 3.2 | 6.4 | 2.39 | 5.31 | 5.31 | 99 | 1010.8 |
| 20260504041828 | 25 | 73 | 0.0 | 0.0 | 7.19 | 4.83 | 4.83 | 99 | 1010.8 |
| 20260504041324 | 25 | 77 | 0.0 | 4.8 | 7.19 | 4.14 | 4.14 | 98 | 1010.8 |
| 20260504040821 | 25 | 30 | 4.8 | 16.1 | 7.19 | 3.56 | 3.56 | 98 | 1010.8 |
| 20260504040318 | 25 | 92 | 0.0 | 3.2 | 5.99 | 3.00 | 3.00 | 98 | 1010.8 |
| 20260504035814 | 26 | 92 | 1.6 | 8.0 | 1.19 | 2.51 | 2.51 | 96 | 1010.5 |
| 20260504035312 | 26 | 39 | 0.0 | 0.0 | 0.00 | 2.44 | 2.44 | 96 | 1010.8 |
| 20260504034809 | 26 | 39 | 0.0 | 0.0 | 0.00 | 2.41 | 2.41 | 96 | 1010.5 |
| 20260504034306 | 26 | 39 | 0.0 | 0.0 | 1.19 | 2.36 | 2.36 | 96 | 1010.5 |
| 20260504033803 | 26 | 39 | 0.0 | 0.0 | 0.00 | 2.21 | 2.21 | 96 | 1010.5 |
| 20260504033301 | 26 | 39 | 0.0 | 0.0 | 0.00 | 2.18 | 2.18 | 96 | 1010.8 |
| 20260504032757 | 26 | 39 | 1.6 | 3.2 | 0.00 | 2.16 | 2.16 | 97 | 1010.8 |
| 20260504032254 | 26 | 39 | 1.6 | 3.2 | 0.00 | 2.16 | 2.16 | 97 | 1010.8 |
| 20260504031751 | 25 | 39 | 3.2 | 4.8 | 0.00 | 2.16 | 2.16 | 97 | 1010.8 |
| 20260504031249 | 25 | 39 | 1.6 | 3.2 | 0.00 | 2.11 | 2.11 | 97 | 1010.8 |
| 20260504030744 | 25 | 39 | 1.6 | 3.2 | 2.39 | 1.93 | 1.93 | 97 | 1010.8 |
| 20260504030242 | 25 | 72 | 1.6 | 11.3 | 1.19 | 1.73 | 1.73 | 97 | 1011.2 |
| 20260504025738 | 25 | 69 | 1.6 | 6.4 | 0.00 | 1.60 | 1.60 | 97 | 1011.2 |
| 20260504025235 | 26 | 45 | 4.8 | 11.3 | 1.19 | 1.30 | 1.30 | 97 | 1011.2 |
| 20260504024732 | 26 | 49 | 3.2 | 8.0 | 0.00 | 1.30 | 1.30 | 96 | 1011.2 |
| 20260504024229 | 26 | 56 | 3.2 | 6.4 | 0.00 | 1.30 | 1.30 | 96 | 1011.2 |
| 20260504023726 | 26 | 51 | 1.6 | 6.4 | 0.00 | 1.30 | 1.30 | 95 | 1011.2 |
| 20260504023221 | 26 | 95 | 1.6 | 6.4 | 0.00 | 1.30 | 1.30 | 95 | 1010.8 |
| 20260504022718 | 26 | 77 | 0.0 | 0.0 | 0.00 | 1.27 | 1.27 | 96 | 1010.8 |
| 20260504022214 | 26 | 77 | 0.0 | 0.0 | 0.00 | 1.27 | 1.27 | 96 | 1010.8 |
| 20260504021712 | 26 | 70 | 1.6 | 6.4 | 2.39 | 1.19 | 1.19 | 95 | 1011.2 |
| 20260504021209 | 26 | 65 | 1.6 | 4.8 | 4.80 | 0.94 | 0.94 | 94 | 1011.2 |
| 20260504020705 | 27 | 116 | 0.0 | 3.2 | 2.39 | 0.64 | 0.64 | 91 | 1011.5 |
| 20260504020201 | 27 | 137 | 0.0 | 4.8 | 0.00 | 0.58 | 0.58 | 93 | 1011.5 |
| 20260504015340 | 28 | 18 | 0.0 | 0.0 | 0.00 | 0.58 | 0.58 | 93 | 1011.5 |
| 20260504014836 | 28 | 18 | 0.0 | 0.0 | 0.00 | 0.58 | 0.58 | 93 | 1011.5 |
| 20260504014332 | 28 | 18 | 0.0 | 0.0 | 0.00 | 0.58 | 0.58 | 93 | 1011.5 |
| 20260504013830 | 28 | 63 | 0.0 | 3.2 | 0.00 | 0.58 | 0.58 | 91 | 1011.9 |
| 20260504013328 | 28 | 41 | 0.0 | 0.0 | 0.00 | 0.58 | 0.58 | 91 | 1011.9 |
| 20260504012824 | 28 | 41 | 0.0 | 0.0 | 0.00 | 0.58 | 0.58 | 91 | 1011.9 |
| 20260504012322 | 28 | 43 | 3.2 | 4.8 | 0.00 | 0.58 | 0.58 | 88 | 1011.9 |
| 20260504011819 | 28 | 66 | 1.6 | 4.8 | 0.00 | 0.48 | 0.48 | 86 | 1011.9 |
| 20260504011316 | 28 | 66 | 3.2 | 4.8 | 0.00 | 0.48 | 0.48 | 88 | 1011.9 |
| 20260504010811 | 27 | 66 | 4.8 | 8.0 | 0.00 | 0.48 | 0.48 | 90 | 1011.5 |
| 20260504010307 | 27 | 51 | 3.2 | 6.4 | 0.00 | 0.48 | 0.48 | 89 | 1011.9 |
| 20260504005804 | 28 | 68 | 3.2 | 8.0 | 0.00 | 0.48 | 0.48 | 88 | 1012.2 |
| 20260504005301 | 28 | 43 | 1.6 | 4.8 | 0.00 | 0.48 | 0.48 | 84 | 1012.2 |
| 20260504004759 | 30 | 58 | 1.6 | 9.7 | 0.00 | 0.48 | 0.48 | 82 | 1012.2 |
| 20260504004256 | 31 | 72 | 6.4 | 16.1 | 0.00 | 0.48 | 0.48 | 80 | 1011.9 |
| 20260504003752 | 31 | 48 | 0.0 | 0.0 | 0.00 | 0.48 | 0.48 | 79 | 1011.9 |
| 20260504003249 | 31 | 15 | 3.2 | 9.7 | 0.00 | 0.48 | 0.48 | 79 | 1011.9 |
| 20260504002746 | 31 | 61 | 6.4 | 11.3 | 0.00 | 0.48 | 0.48 | 78 | 1012.2 |
| 20260504002242 | 31 | 77 | 3.2 | 6.4 | 0.00 | 0.48 | 0.48 | 79 | 1011.9 |
| 20260504001740 | 31 | 64 | 1.6 | 4.8 | 0.00 | 0.48 | 0.48 | 80 | 1012.2 |
| 20260504001237 | 31 | 64 | 1.6 | 4.8 | 0.00 | 0.48 | 0.48 | 80 | 1012.2 |
| 20260504000734 | 31 | 57 | 3.2 | 8.0 | 0.00 | 0.48 | 0.48 | 81 | 1012.2 |
| 20260504000231 | 31 | 57 | 3.2 | 4.8 | 0.00 | 0.48 | 0.48 | 83 | 1012.5 |
| 20260503235729 | 30 | 54 | 0.0 | 3.2 | 0.00 | 0.48 | 0.48 | 83 | 1012.5 |
| 20260503235226 | 30 | 54 | 0.0 | 0.0 | 0.00 | 0.48 | 0.48 | 86 | 1012.2 |
| 20260503234724 | 30 | 54 | 0.0 | 0.0 | 0.00 | 0.48 | 0.48 | 87 | 1012.2 |
| 20260503234222 | 29 | 54 | 0.0 | 0.0 | 0.00 | 0.48 | 0.48 | 86 | 1012.5 |
| 20260503233718 | 29 | 54 | 0.0 | 0.0 | 0.00 | 0.48 | 0.48 | 85 | 1012.5 |
| 20260503233214 | 29 | 54 | 1.6 | 3.2 | 0.00 | 0.48 | 0.48 | 85 | 1012.9 |
| 20260503232711 | 29 | 54 | 0.0 | 3.2 | 0.00 | 0.48 | 0.48 | 86 | 1012.9 |
| 20260503232208 | 29 | 54 | 0.0 | 0.0 | 0.00 | 0.48 | 0.48 | 86 | 1012.5 |
| 20260503231707 | 28 | 62 | 4.8 | 9.7 | 0.00 | 0.48 | 0.48 | 85 | 1012.9 |
| 20260503231203 | 29 | 59 | 3.2 | 6.4 | 0.00 | 0.48 | 0.48 | 85 | 1012.9 |
| 20260503230659 | 30 | 71 | 4.8 | 8.0 | 0.00 | 0.48 | 0.48 | 83 | 1012.9 |
| 20260503230156 | 31 | 75 | 6.4 | 11.3 | 0.00 | 0.48 | 0.48 | 81 | 1012.9 |
| 20260503225653 | 31 | 76 | 3.2 | 6.4 | 0.00 | 0.48 | 0.48 | 80 | 1012.9 |
| 20260503225153 | 31 | 57 | 0.0 | 0.0 | 0.00 | 0.48 | 0.48 | 81 | 1012.5 |
| 20260503224651 | 31 | 55 | 3.2 | 6.4 | 0.00 | 0.48 | 0.48 | 81 | 1012.9 |